• MPC Preparation (Info)

  • MPEC 2023-F154 : 2023 FO4

    The following Minor Planet Electronic Circular may be linked-to from your own Web pages, but must not otherwise be redistributed electronically.

    A form allowing access to any MPEC is at the bottom of this page.


    Read MPEC 2023-F153 Read MPEC 2023-F155


    M.P.E.C. 2023-F154                               Issued 2023 March 27, 10:58 UT
    
         The Minor Planet Electronic Circulars contain information on unusual
             minor planets, routine data on comets and natural satellites,
             and occasional editorial announcements.  They are published
        on behalf of Division F of the International Astronomical Union by the
              Minor Planet Center, Smithsonian Astrophysical Observatory,
                              Cambridge, MA 02138, U.S.A.
    			  
                 Prepared using the Tamkin Foundation Computer Network
    
                                  MPC@CFA.HARVARD.EDU
                URL https://www.minorplanetcenter.net/    ISSN 1523-6714
    
                                    2023 FO4                                 
    
    
    Observations:
         K23F04O* C2023 03 25.45326612 02 22.263+05 00 46.47         21.24wUEF154F51
         K23F04O  C2023 03 25.46585512 02 17.876+05 01 47.39         21.18wUEF154F51
         K23F04O  C2023 03 25.47838912 02 13.509+05 02 47.56         21.17wUEF154F51
         K23F04O  C2023 03 25.49098512 02 09.153+05 03 48.12         21.16wUEF154F51
         K23F04O 2C2023 03 25.97378 11 59 48.04 +05 41 13.8          20.4 LcEF154095
         K23F04O 2C2023 03 25.97438 11 59 47.83 +05 41 17.0          20.3 LcEF154095
         K23F04O 2C2023 03 25.97498 11 59 47.64 +05 41 19.7          20.6 LcEF154095
         K23F04O 2C2023 03 25.97559 11 59 47.43 +05 41 22.4          20.5 LcEF154095
         K23F04O 2C2023 03 25.97619 11 59 47.24 +05 41 25.3          20.4 LcEF154095
         K23F04O 2C2023 03 25.97679 11 59 47.05 +05 41 28.2          20.5 LcEF154095
         K23F04O 2C2023 03 25.97739 11 59 46.86 +05 41 30.9          20.5 LcEF154095
         K23F04O 2C2023 03 25.97859 11 59 46.49 +05 41 36.1          20.4 LcEF154095
         K23F04O 2C2023 03 25.97919 11 59 46.29 +05 41 38.8          20.7 LcEF154095
         K23F04O bC2023 03 26.04118211 59 28.15 +05 46 28.1          20.5 GVEF154L01
         K23F04O bC2023 03 26.04349211 59 27.38 +05 46 39.3          20.7 GVEF154L01
         K23F04O bC2023 03 26.04601211 59 26.66 +05 46 51.3          20.5 GVEF154L01
         K23F04O KC2023 03 26.17922611 58 54.08 +05 57 20.3          21.2 GVEF154H21
         K23F04O KC2023 03 26.18202211 58 53.16 +05 57 33.0          21.4 GVEF154H21
         K23F04O KC2023 03 26.18491211 58 52.23 +05 57 46.4          21.5 GVEF154H21
         K23F04O  C2023 03 26.34514611 58 08.396+06 10 40.59         21.15wUEF154F52
         K23F04O  C2023 03 26.35735311 58 04.371+06 11 36.96         21.00wUEF154F52
         K23F04O  C2023 03 26.36963311 58 00.322+06 12 33.01         21.00wUEF154F52
         K23F04O  C2023 03 26.38197211 57 56.225+06 13 30.04         21.47wUEF154F52
    
    Observer details:
    095 Crimea-Nauchnij.  Observer V. Rumyantsev.  2.6-m f/4 reflector + CCD.
    F51 Pan-STARRS 1, Haleakala.  Observers J. Bulger, T. Lowe, A. Schultz, I.
        Smith.  Measurers K. Chambers, S. Chastel, T. de Boer, J. Fairlamb, H.
        Gao, M. Huber, C.-C. Lin, E. Magnier, Y. Ramanjooloo, R. Wainscoat, R.
        Weryk.  1.8-m Ritchey-Chretien + CCD.
    F52 Pan-STARRS 2, Haleakala.  Observers J. Bulger, T. Lowe, A. Schultz, I.
        Smith.  Measurers K. Chambers, S. Chastel, T. de Boer, J. Fairlamb, H.
        Gao, M. Huber, C.-C. Lin, E. Magnier, Y. Ramanjooloo, R. Wainscoat, R.
        Weryk.  1.8-m Ritchey-Chretien + CCD.
    H21 Astronomical Research Observatory, Westfield.  Observer R. Holmes.
        Measurers T. Linder, R. Holmes, L. Horn.  0.76-m f/3.0 astrograph + CCD.
    L01 Visnjan Observatory, Tican.  Observer K. Korlevic.  1.0-m f/2.9 reflector
        + CCD.
    
    Orbital elements:
    2023 FO4                                                 Earth MOID = 0.0232 AU
    Epoch 2023 Feb. 25.0 TT = JDT 2460000.5                 Veres                   
    M 106.16919              (2000.0)            P               Q                  
    n   1.12111766     Peri.  214.01158     +0.83583675     -0.54897746             
    a   0.9177025      Node   179.28378     +0.51717600     +0.78691401             
    e   0.1945732      Incl.    3.77010     +0.18413558     +0.28176248             
    P   0.88           H   26.48          G   0.15           U   7                  
    Residuals in seconds of arc
    230325 F51  0.0   0.1-    230325 095  0.3+  0.9-    230326 H21  0.0   0.1+
    230325 F51  0.1+  0.1+    230325 095  0.4+  0.8-    230326 H21  0.1-  0.2-
    230325 F51  0.1-  0.0     230325 095  0.4+  0.9-    230326 H21  0.0   0.2-
    230325 F51  0.0   0.0     230325 095  0.7+  1.3-    230326 F52  0.0   0.0
    230325 095  0.6+  1.1-    230325 095  0.6+  1.3-    230326 F52  0.1-  0.2+
    230325 095  0.4+  0.7-    230326 L01  0.2-  0.0     230326 F52  0.1+  0.2-
    230325 095  0.4+  0.8-    230326 L01  0.6-  0.5+    230326 F52  0.0   0.2+
    230325 095  0.2+  1.0-    230326 L01  0.7+  0.9+
    
    Ephemeris:
    2023 FO4                 a,e,i = 0.92, 0.19, 4                   q = 0.7391
    Date    TT    R. A. (2000) Decl.     Delta      r    Elong.  Phase     V
    2023 02 25    15 33 51.1 -40 48 47   0.06306 0.9965    94.3    82.0    23.3
    ...
    2023 03 12    13 31 31.8 -18 49 56   0.05307 1.0357   141.9    36.3    21.7
    ...
    2023 03 20    12 33 24.2 -03 29 19   0.05814 1.0529   169.8     9.7    21.0
    ...
    2023 03 26    11 59 43.5 +05 44 36   0.06744 1.0640   171.2     8.3    21.3
    2023 03 27    11 55 02.7 +07 00 01   0.06937 1.0657   168.7    10.6    21.5
    2023 03 28    11 50 37.5 +08 10 38   0.07140 1.0673   166.2    12.9    21.6
    ...
    2023 04 03    11 29 12.3 +13 43 14   0.08522 1.0763   153.2    24.8    22.4
    ...
    2023 04 11    11 11 55.0 +18 00 54   0.1068  1.0856   139.8    36.5    23.3
    ...
    2023 04 26    11 02 29.0 +20 47 51   0.1520  1.0950   122.4    50.9    24.5
    
    M. P. C. Staff               (C) Copyright 2023 MPC           M.P.E.C. 2023-F154
    


    Read MPEC 2023-F153 Read MPEC 2023-F155


    MPEC number:

    Enter an MPEC number in one of the following forms:

    • 1997-B01 (the full form)
    • J97B01 (the packed version of the full form)
    • B01 (the abbreviated form)